Probability
0 0 0 0 0 0 0 0 0 0 0 0 0 0 0 0 0 0 0 0 1 2 2 3 4 6 6 6 6 5 4 2 1 0 0 0 0 0 0 0 0 0 0 0 0 0 0 0 0
0 0 0 0 0 0 0 0 0 0 0 0 0 0 0 0 0 0 0 1 2 3 3 3 4 5 5 4 4 5 4 3 1 1 1 0 0 0 0 0 0 0 0 0 0 0 0 0 0
0 0 0 0 0 0 0 0 0 0 0 0 0 0 0 1 0 0 0 1 3 3 3 4 5 5 4 3 3 3 3 2 2 2 2 1 1 0 0 0 0 0 0 0 0 0 0 0 0
0 0 0 0 0 0 0 0 0 0 0 0 0 0 0 0 0 0 1 3 4 4 3 5 7 6 4 3 3 3 1 1 2 3 3 3 2 1 1 0 0 0 0 0 0 0 0 0 0
0 0 0 0 0 0 0 0 0 0 0 0 0 0 0 0 0 1 2 4 4 4 4 6 8 7 5 4 3 3 1 0 1 2 3 3 3 3 2 1 0 0 0 0 0 0 0 0 0
0 0 0 0 0 0 0 0 0 0 0 0 0 0 0 0 0 1 2 3 4 3 3 5 6 7 7 6 5 4 3 1 1 1 2 3 3 3 3 2 1 0 0 0 0 0 0 0 0
0 0 0 0 0 0 0 0 0 0 0 0 0 0 0 0 0 1 3 3 3 3 3 4 5 7 8 8 7 7 6 4 2 1 1 2 2 2 2 2 1 0 0 0 0 0 0 0 0
0 0 0 0 0 0 0 0 0 0 0 0 1 0 0 0 1 2 3 3 3 3 4 4 5 7 8 8 8 8 8 6 4 2 1 1 1 1 1 1 1 0 0 0 1 1 1 0 0
0 0 0 0 0 0 0 0 0 0 0 0 1 1 1 1 1 2 3 3 3 4 5 6 6 6 6 7 8 8 7 6 4 3 1 0 0 0 0 0 0 0 0 0 1 3 2 1 0
0 0 0 0 0 0 0 0 0 0 0 0 0 2 3 3 2 2 3 3 3 4 6 7 6 6 5 6 8 9 7 6 3 2 2 1 1 1 0 0 0 0 0 1 2 4 3 1 0
0 0 0 0 0 0 0 0 0 0 0 0 1 3 5 4 2 1 2 4 4 4 6 7 7 7 7 7 8 9 9 7 5 3 2 2 2 2 1 0 0 0 1 1 2 3 2 0 0
0 0 0 0 0 0 0 0 0 0 0 0 2 4 6 5 3 2 2 4 5 4 5 7 8 8 8 8 8 9 9 9 8 5 4 2 2 2 1 0 0 0 1 1 2 2 2 1 1
0 0 0 0 0 0 0 0 0 0 0 1 4 6 6 6 6 4 3 5 6 4 5 6 7 7 7 8 8 9 10 10 9 8 6 4 2 1 1 0 0 0 0 0 1 1 2 2 2
0 1 1 0 0 0 0 0 0 0 1 4 7 8 7 7 7 5 4 5 6 5 5 5 6 5 5 6 8 9 9 9 9 9 8 5 2 1 0 1 1 1 1 1 1 2 2 3 2
1 2 2 1 0 0 0 0 0 0 2 5 8 9 8 7 6 5 4 6 6 6 6 6 7 5 4 4 6 7 8 7 7 7 7 6 4 2 1 2 3 2 2 2 2 2 2 3 2
1 2 2 1 0 0 0 0 0 1 3 4 6 7 7 7 6 5 5 6 7 7 8 9 9 7 4 3 4 6 5 5 4 5 6 6 6 5 3 3 3 1 1 1 1 1 1 2 1
0 1 1 0 0 0 0 0 0 1 3 4 4 5 6 6 6 6 6 7 8 10 11 11 9 8 5 3 3 4 4 3 3 4 5 6 7 6 4 3 1 0 0 0 0 0 0 0 0
0 0 0 0 0 0 0 0 0 1 2 3 3 3 4 5 6 8 9 9 11 13 13 11 9 6 5 4 4 4 4 4 5 5 6 6 6 5 3 2 1 1 1 1 1 0 0 0 0
0 0 0 0 0 0 0 1 1 1 2 2 2 2 2 3 5 8 10 12 14 16 16 14 10 7 6 7 6 6 6 7 6 6 6 6 5 4 3 2 3 3 2 2 2 1 1 1 1
0 0 1 1 1 0 0 1 2 2 3 2 2 1 1 3 5 7 10 12 14 15 16 16 13 11 10 10 8 6 6 6 6 6 6 5 4 3 3 3 4 4 3 3 3 3 2 2 2
0 0 1 2 1 0 0 1 1 2 3 3 2 1 1 2 5 7 9 11 11 12 13 14 15 15 14 13 11 8 6 6 6 5 5 4 3 3 3 4 4 4 3 3 3 3 3 3 3
0 0 1 1 1 0 0 0 0 1 1 1 1 2 1 2 3 6 9 9 9 10 11 12 14 15 15 15 13 10 9 8 6 5 4 4 3 3 3 3 4 3 3 3 3 3 3 3 3
0 0 0 0 0 0 0 0 0 0 0 0 1 2 3 3 3 6 8 9 8 9 10 11 12 13 14 15 14 11 10 9 7 5 4 4 3 3 3 3 3 3 3 3 3 3 3 3 3
0 0 0 0 0 0 0 0 1 1 1 0 1 3 5 6 6 8 10 10 10 10 10 11 12 13 14 14 13 11 10 9 7 6 4 4 4 3 3 3 3 3 3 3 3 3 3 3 3
0 0 0 0 0 0 0 1 2 2 2 1 1 4 7 7 8 10 11 11 11 11 11 13 14 14 14 14 13 11 9 9 8 6 5 5 4 3 3 3 3 3 3 3 3 3 3 3 3
0 0 0 0 0 0 0 1 2 3 3 3 3 5 7 8 8 9 9 10 11 11 12 13 15 15 14 13 13 11 9 7 7 6 6 6 4 3 3 3 3 3 3 3 3 3 3 3 3
0 0 0 0 0 0 1 2 3 3 3 3 3 5 8 9 9 8 7 8 9 9 9 11 12 12 12 12 13 11 9 6 6 7 7 5 4 3 3 3 3 3 3 3 3 3 3 3 3
0 0 0 0 0 0 1 3 3 3 3 3 3 5 9 11 10 9 8 7 6 6 6 6 7 8 8 9 11 11 8 7 7 7 5 4 3 3 3 3 3 3 3 3 3 3 4 3 3
0 0 0 0 0 0 0 1 1 1 3 3 4 5 8 10 9 8 7 5 4 4 4 3 3 3 5 8 10 9 8 8 7 6 5 3 3 3 3 3 3 2 2 2 2 3 3 2 1
0 0 0 0 0 0 0 0 0 1 2 4 5 6 8 9 8 7 6 5 4 3 3 2 1 1 4 7 9 8 8 7 7 6 5 4 3 3 3 3 2 1 1 1 1 1 2 1 0
Wind_Speed
3 3 2 2 5 6 2 2 1 1 2 1 3 4 5 3 2 2 1 6 8 7 6 7 8 8 8 8 8 8 8 8 9 8 8 8 8 8 7 7 7 6 6 7 7 7 7 7 7
2 2 2 4 6 3 3 2 1 1 2 2 3 4 4 2 2 4 3 4 8 7 5 6 8 8 8 8 8 8 8 8 8 8 8 8 7 7 7 7 6 6 6 7 7 7 7 6 6
2 1 4 5 4 2 1 1 1 2 1 1 3 3 3 2 3 4 3 8 8 6 4 5 9 9 8 8 8 7 7 7 7 7 7 7 6 6 6 6 6 6 6 6 6 6 6 6 6
2 3 5 5 1 2 2 1 1 2 2 3 3 3 3 3 3 5 8 9 8 5 4 5 9 9 8 8 7 7 7 6 6 6 6 6 6 6 6 6 5 5 6 6 6 6 6 6 6
4 4 5 4 2 3 2 1 1 1 1 2 3 3 2 4 6 10 10 9 8 5 4 4 8 8 8 8 7 7 6 6 6 5 5 6 5 5 6 5 5 5 5 5 5 5 5 5 5
5 5 5 1 2 3 2 0 1 2 2 2 3 3 1 2 6 8 7 6 5 5 4 3 7 8 7 7 7 6 6 5 5 5 5 5 5 5 5 5 5 4 4 4 4 4 4 4 5
5 4 3 2 1 2 0 1 2 2 2 1 3 4 1 2 4 7 6 6 5 4 3 2 3 4 6 6 6 6 5 4 4 4 4 4 4 4 4 4 4 3 3 3 3 3 3 4 4
4 5 2 1 1 2 1 1 1 2 1 2 4 5 4 5 6 7 6 5 4 3 3 2 2 2 2 3 5 5 4 4 4 4 4 4 3 3 3 3 2 3 3 3 3 2 3 3 3
4 5 2 3 4 2 0 1 1 1 3 1 2 3 4 11 10 8 6 4 3 3 2 2 2 2 2 2 3 3 4 4 3 2 3 2 1 1 1 1 1 2 3 3 3 3 2 2 2
4 3 5 5 4 3 1 1 2 1 1 1 3 5 9 11 10 9 8 7 6 5 4 3 3 2 2 2 2 1 2 1 1 1 1 1 1 1 1 2 1 2 2 2 2 2 2 2 1
3 5 3 3 3 3 2 1 2 4 3 5 6 8 11 10 9 8 8 7 7 6 5 4 4 3 2 1 1 1 1 1 1 1 1 1 1 1 1 1 1 2 2 1 2 2 1 1 1
2 3 3 2 2 2 2 2 1 3 5 5 8 11 12 12 11 10 9 7 5 5 5 4 4 4 3 2 2 2 1 1 1 0 1 1 1 0 0 0 1 1 1 1 1 1 1 1 1
2 2 1 1 1 1 2 2 2 3 2 4 8 9 11 12 10 7 5 5 5 6 6 5 5 4 4 3 2 2 2 1 1 1 1 1 1 1 0 0 0 1 1 1 1 1 1 1 1
1 1 2 2 1 1 2 1 1 3 3 6 8 9 10 11 10 7 7 7 7 7 6 5 5 5 4 3 2 2 1 1 1 1 1 1 1 1 1 0 0 1 1 1 1 1 1 1 1
0 2 4 2 0 1 3 2 3 4 5 6 6 7 8 8 8 9 9 8 7 6 5 5 5 4 4 4 3 2 2 2 1 1 1 1 1 1 1 0 1 1 1 1 1 2 1 1 1
3 2 2 4 0 1 4 4 6 3 6 5 5 6 6 6 8 8 7 6 6 6 5 5 5 4 4 3 3 2 2 2 1 1 1 1 1 2 1 1 0 1 1 1 1 1 1 1 1
4 1 1 4 1 1 3 5 5 2 5 5 5 6 5 5 5 6 6 7 6 6 6 5 5 5 4 3 2 2 1 1 1 1 1 1 2 2 2 1 0 1 1 1 1 1 1 1 1
3 1 2 3 2 2 0 4 5 1 4 5 4 4 4 5 7 6 6 6 6 6 5 6 5 4 3 2 2 1 1 1 1 1 1 1 1 1 2 1 1 1 1 1 1 1 1 1 0
4 2 3 5 2 0 2 4 5 2 1 2 3 4 4 5 4 3 4 5 6 5 5 5 5 4 3 2 2 2 1 0 0 0 1 1 1 1 1 1 1 1 1 1 1 1 1 1 1
3 2 4 5 1 2 1 4 4 1 3 4 5 5 5 3 1 2 3 4 5 6 6 6 5 4 4 3 2 1 2 1 0 0 0 1 1 1 2 1 1 1 1 1 1 1 1 0 1
3 5 5 4 2 2 1 5 3 2 1 0 1 2 3 5 4 3 3 4 4 5 5 5 5 4 3 3 2 2 2 2 1 0 1 1 1 1 1 2 2 1 1 1 2 2 2 1 0
5 7 6 3 1 2 1 3 6 2 2 2 1 1 3 3 3 3 3 3 4 4 4 4 4 4 4 4 3 3 3 2 2 1 1 1 0 0 1 2 2 2 1 1 2 2 2 2 1
7 2 3 2 3 0 1 2 7 1 2 4 3 2 2 2 2 2 3 3 3 3 4 3 4 3 3 4 4 3 2 2 1 1 0 0 1 0 0 1 1 1 1 1 2 2 2 2 2
4 6 6 5 5 0 3 4 6 3 4 4 3 2 2 2 2 2 2 3 3 3 3 3 4 3 3 4 4 4 4 3 2 1 1 1 1 0 0 0 0 1 1 2 2 2 2 2 2
4 6 4 4 3 5 2 3 7 4 3 4 4 2 2 3 3 3 3 3 3 3 3 3 4 3 3 3 3 3 3 3 3 2 2 1 1 1 1 1 1 1 1 2 2 2 2 3 3
5 9 8 5 5 4 2 4 6 2 1 1 2 3 3 3 3 3 3 3 3 3 3 3 3 3 2 3 3 2 2 2 2 2 2 2 2 2 1 1 1 1 2 2 2 2 3 3 3
5 4 6 7 3 1 4 5 6 0 1 2 3 3 3 3 3 3 3 3 3 2 2 3 3 2 2 2 3 2 2 1 1 1 1 1 1 1 1 1 1 2 2 2 2 2 3 2 3
5 7 6 6 6 3 4 4 5 4 3 2 2 3 3 2 3 3 3 2 2 2 2 2 2 3 2 2 2 2 1 1 1 1 1 1 1 1 1 1 1 2 2 2 1 2 2 2 2
3 4 5 4 5 6 4 7 5 6 6 6 6 5 4 4 4 3 2 2 2 2 2 2 2 3 2 2 2 2 2 1 1 0 1 1 1 1 1 1 1 1 2 1 1 2 1 2 2
4 5 6 5 4 4 4 7 3 3 4 4 4 3 3 3 3 3 3 3 2 2 3 3 3 3 2 2 2 2 1 1 1 0 1 1 1 1 1 1 2 2 2 2 2 2 1 1 2
Wind_Direction
150 133 122 81 55 48 14 314 274 16 33 47 83 100 114 111 149 167 111 130 130 137 147 153 146 136 128 121 115 110 108 108 111 111 108 108 108 106 106 106 105 107 107 107 103 100 99 97 100
137 135 76 61 74 50 320 305 10 80 154 131 68 76 85 74 74 107 118 135 132 136 141 152 150 142 133 125 118 114 112 111 113 114 112 109 108 108 108 108 109 108 108 109 106 103 101 98 95
159 116 79 69 86 153 257 297 116 60 85 86 74 58 85 108 126 142 149 134 127 131 136 157 152 145 137 130 125 121 117 114 113 115 116 114 112 111 110 109 111 110 111 111 109 108 105 101 97
103 53 54 66 65 226 219 225 125 82 28 41 91 64 58 49 135 138 132 133 130 131 138 161 154 148 142 137 132 128 122 117 114 114 117 115 115 114 114 115 114 115 119 117 112 108 105 103 100
64 75 58 36 329 286 258 234 181 106 55 55 91 90 43 17 93 121 134 139 141 140 145 160 151 149 146 143 138 133 128 122 115 111 109 107 109 113 114 115 113 118 123 120 115 112 107 103 99
60 68 78 28 301 302 302 228 94 99 110 92 99 107 53 75 111 130 132 131 135 139 139 149 157 152 149 146 141 134 129 123 118 110 102 101 104 111 112 111 112 114 119 122 119 114 109 103 98
101 95 128 175 275 317 305 105 108 126 107 144 129 115 105 127 132 129 122 117 119 128 131 139 154 158 157 150 143 139 131 124 119 113 108 100 101 111 113 107 108 116 120 120 120 118 112 103 102
121 100 98 193 195 265 283 38 80 121 142 133 124 142 186 174 136 116 105 101 108 121 137 142 138 143 145 149 147 142 135 128 121 116 111 107 101 103 113 99 98 123 128 115 106 112 113 104 102
91 80 172 206 192 229 84 50 355 52 105 83 94 145 153 135 130 121 114 110 130 150 157 158 147 133 132 145 149 140 137 132 126 120 116 104 65 50 72 82 97 101 107 97 96 94 109 105 97
92 134 219 210 189 177 210 178 187 102 92 67 68 87 119 134 143 148 155 160 170 178 180 172 161 145 139 158 133 115 122 111 97 80 79 68 56 36 51 28 46 64 82 77 74 69 70 71 65
140 188 225 226 201 167 169 216 172 145 209 206 175 150 143 147 157 167 173 175 181 180 180 179 174 159 150 150 131 117 99 96 87 77 72 67 64 34 34 26 9 18 32 39 45 41 44 60 77
165 243 217 230 189 176 187 172 159 196 219 196 166 154 153 161 172 180 183 181 173 174 186 177 173 167 166 164 155 147 134 125 128 113 92 96 95 76 49 48 16 33 25 26 36 39 38 68 121
197 262 258 235 300 195 141 164 172 232 231 129 136 148 161 174 180 182 180 176 173 182 186 182 179 177 170 159 166 152 161 162 169 149 146 147 139 142 121 59 34 32 39 27 14 39 46 52 65
212 230 312 317 308 246 143 227 146 242 148 137 150 165 175 183 178 174 177 183 188 189 187 182 179 177 165 166 163 159 162 166 159 162 168 157 149 142 144 73 33 25 31 26 40 49 72 74 78
16 12 343 325 312 228 116 348 245 229 143 155 171 176 182 188 181 187 190 190 188 186 181 183 181 170 169 175 176 166 166 161 169 191 165 145 142 150 142 108 18 6 36 59 59 44 65 78 70
40 51 331 295 257 218 132 242 259 203 151 174 187 188 194 198 197 198 193 187 180 171 172 181 182 173 174 179 180 166 163 156 167 179 162 160 158 147 140 128 351 17 66 78 90 72 61 49 46
30 83 261 301 301 109 146 239 262 186 167 190 198 196 200 207 213 206 194 185 178 172 171 178 180 173 176 174 165 141 124 135 153 160 157 168 166 154 149 160 173 86 79 77 88 89 101 86 49
210 205 257 266 298 65 217 257 279 224 185 203 200 201 204 212 221 208 187 175 170 167 168 175 175 169 160 149 131 97 80 83 115 144 146 149 151 150 147 143 107 104 99 79 73 92 82 102 77
163 187 255 263 258 115 251 271 281 270 172 215 208 206 213 223 228 193 176 166 160 160 161 170 171 169 154 155 163 153 162 128 56 101 130 147 141 144 147 137 125 129 138 143 127 108 102 95 74
176 220 265 290 295 161 248 285 286 250 197 207 206 207 211 211 193 178 163 161 169 173 170 166 169 167 166 178 170 138 122 114 99 322 34 189 164 159 158 143 152 158 148 127 130 115 114 124 105
210 197 220 237 344 32 96 319 311 308 333 314 205 209 211 206 199 186 169 167 165 173 178 177 171 163 161 147 115 100 82 66 49 300 268 264 193 169 149 155 149 156 158 175 188 169 156 172 194
240 219 200 201 115 287 130 281 290 290 323 321 285 233 227 223 204 184 166 159 168 179 170 162 158 153 151 142 146 156 157 180 212 219 230 297 41 138 136 156 150 154 167 196 208 187 183 166 185
213 195 160 157 152 3 339 186 281 315 286 280 269 240 226 202 183 182 179 171 159 152 153 153 145 144 145 144 151 154 163 192 182 160 143 320 330 46 83 153 148 164 188 217 221 203 191 188 186
149 75 58 51 75 288 238 180 271 238 225 251 257 242 201 137 134 132 115 112 108 112 117 122 126 138 138 135 147 161 170 165 147 167 181 259 303 303 320 177 159 198 205 221 229 219 207 206 200
112 97 40 2 16 246 249 185 244 244 223 220 229 221 152 131 125 117 111 115 113 108 106 116 130 134 134 134 143 160 171 172 173 184 194 208 256 261 253 241 232 242 240 231 229 220 222 212 209
175 145 159 191 211 263 302 228 248 257 277 207 161 138 123 124 122 123 126 124 122 123 121 127 137 137 135 134 132 130 145 167 179 185 185 203 228 245 250 242 249 258 254 247 231 225 226 217 216
145 173 164 137 147 213 271 281 296 106 75 76 91 109 129 138 125 122 120 121 122 129 138 147 144 133 124 130 129 131 131 150 190 190 182 215 240 255 261 259 266 276 266 254 237 236 228 217 214
141 144 110 128 153 220 267 258 245 241 215 175 159 166 160 145 131 129 132 136 130 133 127 119 128 139 133 121 125 130 114 143 192 174 215 250 271 275 300 298 284 282 277 270 251 253 239 210 209
106 100 111 121 152 161 222 256 227 210 201 191 197 190 172 164 157 152 141 142 131 120 117 113 118 115 108 105 99 89 78 87 116 116 276 279 288 309 315 294 288 284 289 286 266 264 247 213 211
149 154 143 150 201 175 182 256 283 195 188 184 186 179 169 158 146 143 143 144 136 138 142 138 134 134 134 127 107 95 84 69 62 344 304 309 314 314 299 300 301 301 303 291 270 265 255 234 227